Retour au catalogue

STARLINK-4560

ActifCommunicationsSSO
NORAD 53691·PAYLOAD·🇺🇸 United States

Lancé Aug 31, 2022 depuis Vandenberg Space Force Base

Loading…

Prochains Passages (prochaines 24 heures)

TLE

FraisSource: CelesTrak SupGP

Époque: Sep 14, 2026, 20:47 UTC

1 53691C 22105AV  26257.86645833 -.00034265  00000+0 -10638-2 0  2577
2 53691  97.2845 134.7038 0001764  90.9422 210.3777 15.33452575    19

Suivez STARLINK-4560 en temps réel avec AllMySat

Download on the App Store